[[{"header":{"parameterUnit":"m.s-1","parameterCategory":1,"la1":30.2991,"la2":30.254,"lo1":-89.0895,"lo2":-89.0444,"dy":0.0017,"dx":0.0017,"nx":28,"ny":28,"refTime":"2025-01-03T03:00:00:Z","depth":0,"parameterNumber":2,"parameterNumberName":"U-component_of_WINDS"},"data":[0,0,0,0,0,0,0,0,0,0,0,0,0,0,0,0,0,0,0,0,0,0,0,0,0,0,0,0,0,0,0,0,0,0,0,0,0,0,0,0,0,0,0,0,0,0,0,0,0,0,0,0,0,0,0,0,0,0,-5.8573,-5.8573,0,-5.8587,-5.8587,-5.8588,-5.8418,-5.8414,-5.8409,-5.8405,-5.8422,-5.8426,-5.8431,0,0,0,0,0,0,0,0,0,0,0,0,0,-5.84,-5.8404,-5.8573,-5.8573,-5.8573,-5.8587,-5.8587,-5.8588,-5.8419,-5.8413,-5.8408,-5.8402,-5.842,-5.8426,-5.8431,0,0,0,0,0,0,0,0,0,0,0,0,0,-5.8451,-5.8405,-5.8573,-5.8491,-5.8483,-5.8587,-5.8587,-5.8588,-5.842,-5.8413,-5.8406,-5.84,-5.8418,-5.8425,-5.8432,-5.8616,0,0,-5.8454,-5.8457,0,0,0,0,0,0,0,0,-5.8448,-5.8458,-5.8503,-5.8497,-5.8489,-5.8494,-5.8532,-5.8597,-5.8422,-5.8444,-5.8404,-5.8396,-5.8451,-5.8455,-5.8473,-5.8617,-5.8617,-5.8455,-5.8459,-5.8462,-5.8464,0,0,0,0,0,0,0,-5.8445,-5.8456,-5.8578,-5.8503,-5.8495,-5.8453,-5.8453,-5.8544,-5.8487,-5.8442,-5.843,-5.8434,-5.8446,-5.8467,-5.8473,-5.8618,-5.8455,-5.8461,-5.8465,-5.8468,-5.891,-5.8917,0,0,0,0,0,0,-5.8452,-5.8454,-5.8578,-5.8579,-5.8451,-5.8462,-5.8462,-5.8499,-5.8485,-5.8476,-5.8439,-5.8426,-5.8458,-5.8464,-5.8473,-5.8685,-5.8462,-5.8469,-5.8473,-5.8903,-5.8912,-5.892,0,0,0,0,0,0,-5.8449,-5.8465,-5.8577,-5.8513,-5.8524,-5.8473,-5.8516,-5.8503,-5.8523,-5.8483,-5.8473,-5.8471,-5.8453,-5.8462,-5.8581,-5.8683,-5.8472,-5.8479,-5.8894,-5.8906,-5.8916,-5.9113,0,0,0,0,0,0,-5.8445,-5.8465,-5.8534,-5.8516,-5.8528,-5.8686,-5.8522,-5.8508,-5.8536,-5.8518,-5.851,-5.8502,-5.8448,-5.8571,-5.8588,-5.8689,-5.8484,-5.8885,-5.8899,-5.8912,-5.9097,-5.9129,-5.9157,0,0,0,0,0,-5.844,-5.859,-5.8539,-5.8554,-5.8614,-5.8692,-5.8699,-5.8633,-5.8545,-5.8614,-5.8588,-5.8502,-5.867,-5.8585,-5.8602,-5.8707,-5.8878,-5.8895,-5.8911,-5.9084,-5.9123,-5.9157,0,0,0,0,0,0,-5.8623,-5.8586,-5.8529,-5.8678,-5.8689,-5.8663,-5.8748,-5.8678,-5.8715,-5.8697,-5.8614,-5.8613,-5.8745,-5.8738,-5.8644,-5.8883,-5.8758,-5.8779,-5.8883,-5.892,-5.895,-5.8949,-5.849,0,0,0,0,0,-5.868,-5.8746,-5.8711,-5.8846,-5.8854,-5.8801,-5.8833,-5.8781,-5.879,-5.8794,-5.8776,-5.8789,-5.8843,-5.8882,-5.893,-5.9095,-5.9091,-5.9176,-5.9206,-5.9231,-5.925,-5.9336,-5.9373,-5.8975,-5.8975,-5.8974,0,0,-5.88,-5.8788,-5.8835,-5.8882,-5.8885,-5.8956,-5.8806,-5.8888,-5.8939,-5.8806,-5.8916,-5.8905,-5.8913,-5.9055,-5.9117,-5.9053,-5.9359,-5.9253,-5.9273,-5.9278,-5.9357,-5.9395,-5.9428,-5.8986,-5.8984,-5.8982,0,0,-5.9054,-5.9052,-5.9163,-5.9169,-5.9174,-5.9138,-5.9165,-5.915,-5.9136,-5.9245,-5.9147,-5.9207,-5.9304,-5.9313,-5.9331,-5.9588,-5.951,-5.9606,-5.9763,-5.9847,-5.9878,-5.9906,-5.9996,-6.003,-5.9625,-5.9626,-5.9626,0,-5.9202,-5.9304,-5.923,-5.9317,-5.934,-5.9223,-5.9334,-5.9344,-5.9366,-5.9385,-5.9313,-5.9431,-5.9428,-5.957,-5.9633,-5.9651,-5.9679,-5.9606,-5.988,-5.9907,-5.9931,-6.0016,-6.0051,-5.9637,-5.9636,-5.9635,-5.9634,0,-5.9485,-5.9557,-5.9646,-5.9669,-5.9702,-5.9802,-5.9743,-5.9786,-5.9731,-5.9702,-5.9814,-5.9807,-5.9851,-5.9881,-5.9829,-6.0016,-5.9976,-5.9894,-5.9766,-5.9982,-6.006,-6.0093,-5.9654,-5.965,-5.9646,-5.9643,0,0,-5.9855,-5.9834,-5.9868,-5.9876,-5.9874,-5.9928,-6.0022,-6.0064,-6.0102,-6.0122,-6.0198,-6.0282,-6.0205,-6.0225,-6.0173,-6.0247,-6.045,-6.0155,-6.0154,-6.0209,-6.0654,-6.0715,-6.0754,-6.0398,-6.0404,-6.0409,-6.0652,0,-6.01,-6.0258,-6.0194,-6.0358,-6.0423,-6.0312,-6.0394,-6.0402,-6.0377,-6.0429,-6.0401,-6.0462,-6.0357,-6.0368,-6.0436,-6.0411,-6.0538,-6.0392,-6.0468,-6.0472,-6.0468,-6.0795,-6.086,-6.109,-6.0683,-6.0688,-6.0692,0,-6.0408,-6.0438,-6.0609,-6.0593,-6.0618,-6.0693,-6.0725,-6.0777,-6.0783,-6.0759,-6.0782,-6.0713,-6.0804,-6.0678,-6.0801,-6.0704,-6.0731,-6.0724,-6.0731,-6.0734,-6.0594,-6.0807,-6.1162,-6.1197,-6.074,-6.0736,-6.0732,0,-6.0659,-6.0743,-6.0855,-6.0865,-6.0851,-6.0905,-6.0902,-6.0901,-6.093,-6.0959,-6.0977,-6.1017,-6.1039,-6.1072,-6.1016,-6.0929,-6.1147,-6.1016,-6.113,-6.1132,-6.118,-6.1178,-6.1544,-6.1201,-6.12,-6.12,-6.1199,0,-6.0939,-6.1048,-6.0967,-6.1036,-6.1154,-6.1079,-6.1198,-6.1182,-6.1182,-6.1246,-6.1153,-6.1215,-6.1138,-6.1193,-6.115,-6.1258,-6.1269,-6.1253,-6.124,-6.126,-6.1262,-6.1276,-6.1258,-6.1209,-6.1207,-6.1205,-6.1203,0,-6.1239,-6.1189,-6.1304,-6.128,-6.1276,-6.1364,-6.1344,-6.1407,-6.1375,-6.1457,-6.1472,-6.1424,-6.1483,-6.143,-6.1488,-6.1459,-6.1603,-6.1568,-6.1601,-6.1591,-6.1707,-6.1696,-6.2094,-6.2142,-6.1769,-6.1773,-6.1776,0,-6.1421,-6.1501,-6.1485,-6.1521,-6.1523,-6.1582,-6.1611,-6.154,-6.1574,-6.1587,-6.1648,-6.17,-6.1737,-6.1837,-6.1807,-6.1851,-6.1815,-6.1951,-6.1821,-6.1839,-6.1815,-6.1811,-6.1818,-6.1978,-6.1982,-6.1986,-6.1989,0,-6.1748,-6.1719,-6.1763,-6.18,-6.1837,-6.1862,-6.188,-6.1915,-6.1843,-6.1886,-6.1945,-6.1974,-6.2032,-6.2084,-6.2118,-6.2114,-6.204,-6.203,-6.2058,-6.208,-6.2095,-6.2087,-6.1672,-6.2021,-6.2018,-6.2015,-6.2014,-6.2012,-6.1992,-6.2058,-6.2057,-6.211,-6.2116,-6.2135,-6.2192,-6.2167,-6.2215,-6.2256,-6.2212,-6.2284,-6.2287,-6.2324,-6.233,-6.2385,-6.2328,-6.2369,-6.238,-6.2391,-6.2407,-6.2087,-6.2391,-6.239,-6.2389,-6.2388,-6.2388,0,-6.2313,-6.2307,-6.2356,-6.2384,-6.2425,-6.2351,-6.2367,-6.2407,-6.2471,-6.248,-6.2518,-6.2586,-6.2636,-6.261,-6.2653,-6.2702,-6.2669,-6.2715,-6.271,-6.2711,-6.2456,-6.2426,-6.2741,-6.2741,-6.2741,-6.2741,-6.2741,-6.2741,-6.2485,-6.2592,-6.2563,-6.2671,-6.2664,-6.2733,-6.2748,-6.2765,-6.2771,-6.2851,-6.2891,-6.2874,-6.2868,-6.291,-6.2953,-6.2943,-6.2963,-6.3022,-6.3001,-6.2764,-6.2729,-6.2695,-6.2667,-6.3027,-6.3028,-6.325,-6.3252,-6.3254]},{"header":{"parameterUnit":"m.s-1","parameterCategory":1,"la1":30.2991,"la2":30.254,"lo1":-89.0895,"lo2":-89.0444,"dy":0.0017,"dx":0.0017,"nx":28,"ny":28,"refTime":"2025-01-03T03:00:00:Z","depth":0,"parameterNumber":3,"parameterNumberName":"V-component_of_WINDS"},"data":[0,0,0,0,0,0,0,0,0,0,0,0,0,0,0,0,0,0,0,0,0,0,0,0,0,0,0,0,0,0,0,0,0,0,0,0,0,0,0,0,0,0,0,0,0,0,0,0,0,0,0,0,0,0,0,0,0,0,-1.5614,-1.5615,0,-1.5664,-1.5664,-1.5665,-1.5689,-1.5689,-1.5689,-1.5689,-1.5738,-1.5739,-1.574,0,0,0,0,0,0,0,0,0,0,0,0,0,-1.5536,-1.5538,-1.5614,-1.5615,-1.5615,-1.5664,-1.5664,-1.5665,-1.5689,-1.5689,-1.5689,-1.5689,-1.5737,-1.5739,-1.574,0,0,0,0,0,0,0,0,0,0,0,0,0,-1.5576,-1.5538,-1.5614,-1.5633,-1.5636,-1.5664,-1.5664,-1.5665,-1.5689,-1.5689,-1.5689,-1.5689,-1.5737,-1.5739,-1.5741,-1.5752,0,0,-1.5746,-1.5747,0,0,0,0,0,0,0,0,-1.5574,-1.5579,-1.563,-1.5632,-1.5635,-1.567,-1.5655,-1.5694,-1.5689,-1.5669,-1.5689,-1.5689,-1.5715,-1.5719,-1.5728,-1.5755,-1.5757,-1.5747,-1.5748,-1.5749,-1.5749,0,0,0,0,0,0,0,-1.5571,-1.5577,-1.5634,-1.563,-1.5633,-1.5638,-1.5644,-1.5662,-1.5691,-1.5671,-1.5672,-1.5678,-1.5716,-1.5726,-1.5729,-1.5757,-1.5747,-1.5748,-1.5749,-1.575,-1.5794,-1.5794,0,0,0,0,0,0,-1.5566,-1.5575,-1.5632,-1.5635,-1.5604,-1.564,-1.5646,-1.5659,-1.5691,-1.5696,-1.5678,-1.5679,-1.5723,-1.5727,-1.5731,-1.5746,-1.5749,-1.575,-1.5751,-1.5794,-1.5794,-1.5794,0,0,0,0,0,0,-1.5564,-1.5571,-1.563,-1.5605,-1.5613,-1.5641,-1.5655,-1.566,-1.567,-1.5697,-1.5702,-1.5683,-1.5723,-1.5728,-1.5747,-1.5748,-1.5751,-1.5753,-1.5794,-1.5794,-1.5794,-1.5776,0,0,0,0,0,0,-1.5562,-1.557,-1.5576,-1.5605,-1.5615,-1.5646,-1.5655,-1.5661,-1.5673,-1.5675,-1.5703,-1.5707,-1.5723,-1.5744,-1.5748,-1.5751,-1.5755,-1.5794,-1.5794,-1.5794,-1.5777,-1.5776,-1.5775,0,0,0,0,0,-1.5559,-1.5569,-1.5576,-1.5583,-1.5623,-1.5646,-1.5651,-1.567,-1.5673,-1.5679,-1.5696,-1.5706,-1.5747,-1.5745,-1.5751,-1.5754,-1.5794,-1.5794,-1.5794,-1.5777,-1.5776,-1.5775,0,0,0,0,0,0,-1.5538,-1.5573,-1.5582,-1.5602,-1.5621,-1.565,-1.5658,-1.5668,-1.5686,-1.5687,-1.5709,-1.5715,-1.5731,-1.5744,-1.5742,-1.5766,-1.5771,-1.5772,-1.5757,-1.5756,-1.5755,-1.5751,-1.5756,0,0,0,0,0,-1.5536,-1.5553,-1.5582,-1.5597,-1.5606,-1.563,-1.5641,-1.5654,-1.5674,-1.5682,-1.5701,-1.5719,-1.5736,-1.5746,-1.5764,-1.5779,-1.5784,-1.5783,-1.5782,-1.5781,-1.5782,-1.5789,-1.5789,-1.5794,-1.5794,-1.5794,0,0,-1.5532,-1.5553,-1.5562,-1.5593,-1.561,-1.5625,-1.5637,-1.5653,-1.5665,-1.5684,-1.5703,-1.5717,-1.5738,-1.5755,-1.5763,-1.5766,-1.5781,-1.5781,-1.578,-1.5781,-1.5789,-1.5789,-1.5788,-1.5794,-1.5794,-1.5794,0,0,-1.5532,-1.555,-1.5564,-1.558,-1.5604,-1.562,-1.5623,-1.565,-1.566,-1.5679,-1.5693,-1.5707,-1.5736,-1.575,-1.5761,-1.5764,-1.5774,-1.5769,-1.5764,-1.577,-1.577,-1.577,-1.577,-1.577,-1.577,-1.577,-1.577,0,-1.5524,-1.5549,-1.557,-1.5585,-1.5597,-1.5616,-1.5629,-1.5643,-1.5671,-1.5679,-1.5682,-1.5717,-1.5734,-1.5753,-1.5753,-1.5762,-1.5765,-1.5766,-1.5769,-1.5768,-1.5768,-1.5769,-1.5769,-1.5769,-1.5769,-1.5769,-1.5769,0,-1.5537,-1.5554,-1.5562,-1.5589,-1.5602,-1.5616,-1.5637,-1.5648,-1.5659,-1.5673,-1.5691,-1.571,-1.5731,-1.5736,-1.5747,-1.5756,-1.5758,-1.5764,-1.577,-1.5767,-1.5767,-1.5768,-1.5768,-1.5768,-1.5768,-1.5768,0,0,-1.5527,-1.5564,-1.5566,-1.5578,-1.5605,-1.5618,-1.5632,-1.5653,-1.5661,-1.5679,-1.569,-1.5713,-1.5719,-1.5732,-1.5744,-1.575,-1.575,-1.5756,-1.5757,-1.5753,-1.5759,-1.5753,-1.5753,-1.5756,-1.5756,-1.5756,-1.5757,0,-1.553,-1.5557,-1.5575,-1.5594,-1.5609,-1.5626,-1.5638,-1.5655,-1.5668,-1.5682,-1.5696,-1.5711,-1.5719,-1.5726,-1.5733,-1.5748,-1.5751,-1.5748,-1.5766,-1.5766,-1.576,-1.5754,-1.5748,-1.5748,-1.5757,-1.5757,-1.5757,0,-1.5539,-1.5557,-1.5577,-1.5601,-1.5608,-1.5619,-1.5638,-1.5651,-1.567,-1.5679,-1.5692,-1.5704,-1.5718,-1.5722,-1.574,-1.5738,-1.5746,-1.5754,-1.5755,-1.5757,-1.5761,-1.5755,-1.5749,-1.5748,-1.5758,-1.5758,-1.5758,0,-1.5528,-1.5557,-1.5573,-1.5583,-1.5611,-1.5618,-1.563,-1.5649,-1.5659,-1.5675,-1.5682,-1.5699,-1.5709,-1.5721,-1.5737,-1.5739,-1.5753,-1.5759,-1.576,-1.576,-1.5763,-1.5762,-1.5756,-1.5768,-1.5768,-1.5768,-1.5768,0,-1.553,-1.5542,-1.5569,-1.5578,-1.5591,-1.561,-1.5622,-1.5635,-1.5652,-1.5663,-1.5678,-1.5688,-1.5709,-1.5721,-1.5734,-1.5746,-1.575,-1.5757,-1.576,-1.5756,-1.5755,-1.5761,-1.5761,-1.5768,-1.5768,-1.5768,-1.5768,0,-1.5521,-1.554,-1.5558,-1.5583,-1.5589,-1.5597,-1.5618,-1.5627,-1.5641,-1.5655,-1.5659,-1.568,-1.5695,-1.5712,-1.5733,-1.5741,-1.5752,-1.5757,-1.5746,-1.5747,-1.5747,-1.5746,-1.5745,-1.5745,-1.5757,-1.5757,-1.5757,0,-1.5521,-1.5531,-1.5556,-1.5565,-1.5577,-1.5591,-1.5602,-1.562,-1.563,-1.5651,-1.5657,-1.5673,-1.5687,-1.571,-1.5726,-1.5741,-1.5746,-1.5744,-1.5749,-1.5743,-1.5745,-1.5744,-1.5745,-1.5743,-1.5743,-1.5743,-1.5743,0,-1.5519,-1.5527,-1.5542,-1.556,-1.5572,-1.5587,-1.5602,-1.5608,-1.5629,-1.5639,-1.5655,-1.5665,-1.5686,-1.5701,-1.5718,-1.5729,-1.5739,-1.5741,-1.5742,-1.5737,-1.573,-1.5733,-1.5742,-1.5741,-1.5741,-1.5742,-1.5742,-1.5742,-1.5514,-1.5523,-1.5542,-1.5557,-1.557,-1.5584,-1.5593,-1.5607,-1.5621,-1.5639,-1.5648,-1.5663,-1.568,-1.5704,-1.5714,-1.5725,-1.5728,-1.573,-1.573,-1.573,-1.5728,-1.5728,-1.5728,-1.5728,-1.5728,-1.5728,-1.5728,0,-1.5512,-1.5525,-1.5539,-1.5559,-1.5571,-1.5579,-1.5596,-1.5605,-1.5618,-1.5633,-1.5646,-1.5662,-1.5677,-1.5693,-1.5708,-1.5714,-1.5718,-1.5717,-1.5717,-1.5719,-1.5725,-1.5722,-1.5713,-1.5713,-1.5713,-1.5713,-1.5713,-1.5713,-1.5512,-1.5527,-1.5536,-1.5556,-1.5569,-1.5584,-1.5592,-1.5604,-1.5616,-1.5634,-1.5646,-1.5656,-1.5671,-1.5687,-1.57,-1.5705,-1.5709,-1.5706,-1.5712,-1.5717,-1.5718,-1.572,-1.5717,-1.5707,-1.5707,-1.5704,-1.5704,-1.5704]}]]